DELTA 1 DEB, 720

Orbit data source: Space-Track

DELTA 1 DEB, 720 is space debris in LEO originally from a launch on Sat, 21 Dec 1963 UTC launched from the Air Force Western Test Range (AFWTR). Debris objects in space refer to the collection of defunct objects orbiting the Earth. Examples of debris include non-operational satellites, rocket bodies, and fragments generated from explosions, collisions, or faulty payload assembly.

Loading next visibility...
Identifier
720, 1963-054C
Orbit
LEO
Country
Flag of USUS
Related business
Manufacturer
Unknown
Mission
Spacecraft
Bus & Motor
Unknown
Mass
~1 kg wet, ~1 kg dry
Launch date (UTC)
1963-12-21 (62 years ago)
Launch vehicle
Unknown
Launch site
Air Force Western Test Range (AFWTR)
Object type
Payload
Rocket body
Debris
Shape & HBR
Box + 1 Cable, 1.8 m
Radar Cross Section
6.125 m², Small (<0.1 m²)

Expand to show TLE details & history
Last TLE update: 23 hours ago

TLE from 23 hours ago
0 DELTA 1 DEB
1 00720U 63054C   25260.69896845  .00000440  00000-0  14506-3 0  9994
2 00720  58.4729  24.0661 0113515  76.2184 285.1447 14.50200729241951
Epoch: 2025-09-17T16:46Z
TLE epoch observation values (Epoch: 2025-09-17T16:46:30.874Z)
Latitude
-0.00004°
Longitude
135.56626°
Altitude
706.185 km
Speed
7.514 km/s
True Right ascension
01h 36m 15s
True Declination
0° 00' 00"
Sunlit
Object was in full shadow at epoch
Visualization orbit readout
Latitude
Unknown
Longitude
Unknown
Altitude
Unknown
Speed
Unknown
Apparent Right ascension
Unknown
Apparent Declination
Unknown
Sunlit
N/A
Visualization observer readout
Local Sidereal Time
08:50:33
Azimuth
Unknown
Elevation
Unknown
Doppler factor
Unknown
Orbital elements
Apogee altitude
805.065 km
Perigee altitude
643.815 km
Semi-major axis
7,102.577 km
Eccentricity
0.01135
Inclination
58.4729°
RAAN
24.0661°
Arg. of periapsis
76.2184°
True anomaly
283.88452°
Mean anomaly
285.1447°
Eccentric anomaly
284.51507°
Mean motion
3.62593 °/min
Orbital period
99.28 mins
BSTAR
0.00014506
Loading maneuver chart data...
Computing Atmospheric mass density...
Loading historical data...
Loading historical data...
Loading historical data...
Loading historical data...
Loading historical data...
Loading historical data...
Loading historical data...
Other satellites on launch #54 in the year 1963 (1963-12-21 UTC)

Documentation

Showing up to 5 results
|